Hazlehurst, GA

1:53 PM EDT on October 14, 2019 (GMT -0400)
Hazlehurst

Weather History for KAZE - August, 2019

Change the Weather History Date:

Wednesday, August 28, 2019

  Actual Average Record
Temperature  
Mean Temperature 84 °F -  
Max Temperature 93 °F 94 °F 97 °F (2016)
Min Temperature 76 °F 68 °F 65 °F (2014)
Cooling Degree Days 20    
Growing Degree Days 34 (Base 50)    
Moisture  
Dew Point 71 °F    
Average Humidity 70    
Maximum Humidity 91    
Minimum Humidity 42    
Precipitation  
Precipitation 0.00 in - - ()
Sea Level Pressure  
Sea Level Pressure 29.92 in    
Wind  
Wind Speed 2 mph (NNW)    
Max Wind Speed 8 mph    
Max Gust Speed -    
Visibility 9 miles    
Events      
Averages and records for this station are not official NWS values.
T = Trace of Precipitation, MM = Missing Value Source: NWS Daily Summary

Daily Weather History Graph

Daily Weather History Graph

Search for Another Location

Airport or City:

Astronomy

Aug. 28, 2019 Rise Set
Actual Time 7:03 AM EDT 7:59 PM EDT
Civil Twilight 6:38 AM EDT 8:24 PM EDT
Nautical Twilight 6:08 AM EDT 8:54 PM EDT
Astronomical Twilight 5:38 AM EDT 9:24 PM EDT
Moon 4:45 AM EDT (8/28) 7:01 PM EDT (8/28)
Length of Visible Light 13h 46m
Length of Day
12h 56m
Waning Crescent, 5% of the Moon is Illuminated
Aug 28
Waning Crescent
Aug 30
New
Sep 5
First Quarter
Sep 14
Full
Sep 21
Last Quarter

Hourly Weather History & Observations

Time (EDT) Temp. Heat Index Dew Point Humidity Pressure Visibility Wind Dir Wind Speed Gust Speed Precip Events Conditions
12:10 AM 78.1 °F - 73.0 °F 84% 29.95 in 10.0 mi Calm Calm - N/A   Scattered Clouds
12:30 AM 77.5 °F - 73.0 °F 86% 29.93 in 10.0 mi Calm Calm - N/A   Clear
12:55 AM 77.2 °F - 72.7 °F 86% 29.92 in 10.0 mi Calm Calm - N/A   Clear
1:10 AM 77.0 °F - 72.7 °F 86% 29.92 in 10.0 mi Calm Calm - N/A   Clear
1:30 AM 77.0 °F - 72.9 °F 87% 29.91 in 10.0 mi Calm Calm - N/A   Clear
1:50 AM 76.5 °F - 72.9 °F 89% 29.90 in 10.0 mi Calm Calm - N/A   Clear
2:10 AM 76.5 °F - 73.0 °F 89% 29.89 in 10.0 mi Calm Calm - N/A   Clear
2:30 AM 76.3 °F - 73.0 °F 90% 29.89 in 10.0 mi Calm Calm - N/A   Clear
2:50 AM 76.1 °F - 72.7 °F 89% 29.89 in 10.0 mi Calm Calm - N/A   Clear
3:10 AM 76.3 °F - 73.0 °F 90% 29.89 in 10.0 mi Calm Calm - N/A   Mostly Cloudy
3:30 AM 76.1 °F - 73.2 °F 91% 29.89 in 10.0 mi Calm Calm - N/A   Overcast
3:50 AM 76.1 °F - 73.0 °F 90% 29.89 in 10.0 mi Calm Calm - N/A   Mostly Cloudy
4:10 AM 76.3 °F - 73.4 °F 91% 29.89 in 10.0 mi Calm Calm - N/A   Mostly Cloudy
4:30 AM 76.5 °F - 73.4 °F 90% 29.89 in 10.0 mi Calm Calm - N/A   Overcast
4:50 AM 76.3 °F - 73.0 °F 90% 29.89 in 5.0 mi Calm Calm - N/A   Overcast
5:10 AM 76.1 °F - 73.2 °F 91% 29.90 in 0.8 mi Calm Calm - N/A   Overcast
5:30 AM 76.1 °F - 73.4 °F 91% 29.91 in 1.0 mi Calm Calm - N/A   Overcast
5:50 AM 76.1 °F - 73.4 °F 91% 29.91 in 1.2 mi Calm Calm - N/A   Overcast
6:10 AM 76.3 °F - 73.4 °F 91% 29.92 in 2.5 mi Calm Calm - N/A   Overcast
6:30 AM 76.3 °F - 73.4 °F 91% 29.92 in 4.0 mi Calm Calm - N/A   Overcast
6:50 AM 76.3 °F - 73.4 °F 91% 29.92 in 2.5 mi Calm Calm - N/A   Overcast
7:10 AM 76.3 °F - 73.4 °F 91% 29.92 in 2.0 mi Calm Calm - N/A   Overcast
7:30 AM 76.5 °F - 73.6 °F 91% 29.93 in 1.8 mi Calm Calm - N/A   Overcast
7:50 AM 76.5 °F - 73.4 °F 90% 29.93 in 10.0 mi Calm Calm - N/A   Overcast
8:10 AM 77.4 °F - 73.6 °F 88% 29.94 in 10.0 mi NW 3.5 mph - N/A   Mostly Cloudy
8:30 AM 77.9 °F - 72.9 °F 84% 29.94 in 10.0 mi NW 3.5 mph - N/A   Mostly Cloudy
8:50 AM 77.9 °F - 72.5 °F 83% 29.93 in 10.0 mi NNW 3.5 mph - N/A   Overcast
9:10 AM 77.9 °F - 72.7 °F 84% 29.93 in 10.0 mi Calm Calm - N/A   Overcast
9:30 AM 78.3 °F - 72.3 °F 82% 29.94 in 10.0 mi NNW 5.8 mph - N/A   Overcast
9:50 AM 78.6 °F - 72.0 °F 80% 29.94 in 10.0 mi NNW 3.5 mph - N/A   Overcast
10:10 AM 79.5 °F - 72.0 °F 78% 29.94 in 10.0 mi NNW 3.5 mph - N/A   Overcast
10:30 AM 81.0 °F 85.2 °F 72.0 °F 74% 29.94 in 10.0 mi North 4.6 mph - N/A   Overcast
10:50 AM 80.4 °F 84.4 °F 72.0 °F 75% 29.95 in 10.0 mi North 4.6 mph - N/A   Overcast
11:10 AM 80.6 °F 84.9 °F 72.5 °F 76% 29.95 in 10.0 mi NNW 5.8 mph - N/A   Overcast
11:30 AM 81.5 °F 86.3 °F 72.5 °F 74% 29.95 in 10.0 mi NNW 5.8 mph - N/A   Overcast
11:50 AM 82.4 °F 87.4 °F 72.1 °F 71% 29.95 in 10.0 mi North 4.6 mph - N/A   Overcast
12:10 PM 83.7 °F 89.2 °F 72.0 °F 68% 29.95 in 10.0 mi NNW 4.6 mph - N/A   Mostly Cloudy
12:30 PM 86.4 °F 91.8 °F 71.1 °F 60% 29.94 in 10.0 mi North 4.6 mph - N/A   Mostly Cloudy
12:50 PM 86.0 °F 91.5 °F 71.2 °F 61% 29.94 in 10.0 mi North 5.8 mph - N/A   Mostly Cloudy
1:10 PM 88.5 °F 94.0 °F 70.3 °F 55% 29.93 in 10.0 mi North 5.8 mph - N/A   Scattered Clouds
1:30 PM 88.9 °F 94.2 °F 70.3 °F 54% 29.93 in 10.0 mi North 6.9 mph - N/A   Scattered Clouds
1:50 PM 88.9 °F 94.2 °F 70.2 °F 54% 29.92 in 10.0 mi NW 3.5 mph - N/A   Scattered Clouds
2:10 PM 90.5 °F 96.0 °F 70.0 °F 51% 29.92 in 10.0 mi North 8.1 mph - N/A   Mostly Cloudy
2:30 PM 90.7 °F 95.0 °F 68.7 °F 48% 29.92 in 10.0 mi North 4.6 mph - N/A   Scattered Clouds
2:50 PM 90.3 °F 95.2 °F 69.3 °F 50% 29.91 in 10.0 mi NNW 3.5 mph - N/A   Scattered Clouds
3:10 PM 91.9 °F 96.9 °F 68.9 °F 47% 29.90 in 10.0 mi Calm Calm - N/A   Scattered Clouds
3:30 PM 92.5 °F 96.9 °F 68.0 °F 45% 29.89 in 10.0 mi NW 5.8 mph - N/A   Scattered Clouds
3:50 PM 93.0 °F 96.4 °F 66.7 °F 42% 29.89 in 10.0 mi NW 5.8 mph - N/A   Scattered Clouds
4:10 PM 92.3 °F 96.5 °F 68.2 °F 45% 29.89 in 10.0 mi NNE 5.8 mph - N/A   Mostly Cloudy
4:30 PM 91.9 °F 95.4 °F 67.3 °F 44% 29.89 in 10.0 mi North 6.9 mph - N/A   Mostly Cloudy
4:55 PM 92.3 °F 95.6 °F 66.6 °F 43% 29.88 in 10.0 mi North 6.9 mph - N/A   Mostly Cloudy
5:10 PM 90.7 °F 93.6 °F 66.9 °F 45% 29.89 in 10.0 mi NNW 4.6 mph - N/A   Scattered Clouds
5:30 PM 91.6 °F 94.8 °F 66.6 °F 44% 29.89 in 10.0 mi NNW 6.9 mph - N/A   Clear
5:50 PM 92.1 °F 95.3 °F 66.6 °F 43% 29.89 in 10.0 mi North 6.9 mph - N/A   Clear
6:10 PM 91.8 °F 94.6 °F 66.4 °F 43% 29.89 in 10.0 mi North 6.9 mph - N/A   Clear
6:30 PM 90.5 °F 93.8 °F 67.1 °F 46% 29.89 in 10.0 mi North 6.9 mph - N/A   Scattered Clouds
6:50 PM 90.7 °F 94.1 °F 67.3 °F 46% 29.89 in 10.0 mi North 5.8 mph - N/A   Scattered Clouds
7:10 PM 90.5 °F 93.8 °F 67.1 °F 46% 29.89 in 10.0 mi NNW 5.8 mph - N/A   Scattered Clouds
7:30 PM 89.1 °F 92.1 °F 67.3 °F 48% 29.90 in 10.0 mi North 4.6 mph - N/A   Clear
7:50 PM 87.6 °F 90.8 °F 67.5 °F 51% 29.90 in 10.0 mi North 4.6 mph - N/A   Clear
8:10 PM 86.4 °F 89.4 °F 67.6 °F 53% 29.91 in 7.0 mi Calm Calm - N/A   Clear
8:30 PM 85.5 °F 88.8 °F 68.0 °F 56% 29.92 in 10.0 mi Calm Calm - N/A   Clear
8:50 PM 84.4 °F 87.6 °F 68.2 °F 58% 29.92 in 10.0 mi Calm Calm - N/A   Clear
9:10 PM 84.2 °F 87.3 °F 68.2 °F 58% 29.92 in 10.0 mi Calm Calm - N/A   Clear
9:30 PM 83.3 °F 86.6 °F 68.5 °F 61% 29.93 in 10.0 mi North 3.5 mph - N/A   Clear
9:50 PM 82.9 °F 86.3 °F 68.9 °F 62% 29.93 in 10.0 mi North 3.5 mph - N/A   Clear
10:10 PM 82.4 °F 85.8 °F 69.1 °F 64% 29.94 in 10.0 mi North 3.5 mph - N/A   Clear
10:30 PM 81.5 °F 84.9 °F 69.4 °F 67% 29.94 in 10.0 mi North 3.5 mph - N/A   Clear
10:50 PM 81.0 °F 84.2 °F 69.4 °F 68% 29.94 in 10.0 mi North 3.5 mph - N/A   Clear
11:10 PM 80.6 °F 83.8 °F 69.6 °F 69% 29.95 in 10.0 mi Calm Calm - N/A   Clear
11:30 PM 80.1 °F 83.2 °F 69.8 °F 71% 29.95 in 10.0 mi Calm Calm - N/A   Clear
11:50 PM 76.8 °F - 70.7 °F 81% 29.95 in 10.0 mi Calm Calm - N/A   Clear